Regional Weather Roundup
Issued by NWS

Home | Current Version | Previous Version | Text Only | Print | Product List | Glossary Off
Versions: 1 2 3 4 5 6 7 8 9 10 11 12 13 14 15 16 17 18 19 20 21 22 23 24 25 26 27 28 29 30 31 32 33 34 35 36 37 38 39 40 41 42 43 44 45 46 47 48 49 50

892
ASUS44 KLIX 310901
RWRLA
LOUISIANA WEATHER ROUNDUP
NATIONAL WEATHER SERVICE NEW ORLEANS LA
400 AM CDT FRI OCT 31 2014

NOTE: "FAIR" INDICATES FEW OR NO CLOUDS BELOW 12,000 FEET WITH NO
      SIGNIFICANT WEATHER AND/OR OBSTRUCTIONS TO VISIBILITY.
      SKY/WX - SKY CONDITION AND SIGNIFICANT WEATHER.
      TMP - AIR TEMPERATURE.    DP   - DEWPOINT TEMPERATURE.
      RH  - RELATIVE HUMIDITY.  PRES - PRESSURE.
      HX  - HEAT INDEX.         WCI  - WIND CHILL INDEX.

*  THESE STATIONS ARE NOT NWS OR FAA STATIONS AND ARE NOT UNDER
   NWS QUALITY CONTROL.

LAZ040-048-061>063-065-066-069-311000-
SOUTHEAST LOUISIANA

CITY           SKY/WX    TMP DP  RH WIND       PRES   REMARKS
N.O. AUDUBON     N/A     58  57  96 MISG        N/A
N.O. INTL ARPT PTCLDY    56  48  74 NW3       30.04S
N.O. LAKEFRONT CLEAR     65  49  56 N12       30.04S
N.O. DOWNTOWN* FAIR      63  46  55 CALM      30.04S
SLIDELL        CLEAR     46  42  86 CALM      30.03S
BATON ROUGE    CLEAR     48  45  89 CALM      30.04F
BOOTHVILLE     CLEAR     65  51  60 N6        30.02F
BELLE CHASSE   CLEAR     49  45  86 CALM      30.03F
BOGALUSA*        N/A     44  40  88 CALM      30.05S
NEW ROADS*     FAIR      47  46  95 CALM      30.05F
GONZALES*      PTSUNNY   50  50 100 CALM      30.05S
HAMMOND*       NOT AVBL
HOUMA*         CLEAR     54  48  80 NW3       30.04S
PORT FOURCHON* SUNNY     64  50  59 N8        30.06S

$$

LAZ041-044-053-054-311000-
SOUTHWEST LOUISIANA

CITY           SKY/WX    TMP DP  RH WIND       PRES   REMARKS
LAKE CHARLES   CLEAR     52  50  93 CALM      30.07F
LAFAYETTE      PTCLDY    52  47  83 CALM      30.06F
PATTERSON      CLEAR     54  48  82 N3        30.08S
SALT POINT       N/A     58  52  80 CALM      30.05S
NEW IBERIA     CLEAR     52  49  89 NW3       30.07F
CHENAULT AIRPK PTCLDY    53  49  87 CALM      30.08S

$$

LAZ027-028-311000-
CENTRAL LOUISIANA

CITY           SKY/WX    TMP DP  RH WIND       PRES   REMARKS
FORT POLK      NOT AVBL
ALEXANDRIA INT CLEAR     47  45  93 CALM      30.05F
ALEXANDRIA     CLEAR     46  44  93 CALM      30.06F

$$

LAZ001-002-311000-
NORTHWEST LOUISIANA

CITY           SKY/WX    TMP DP  RH WIND       PRES   REMARKS
SHREVEPORT     CLEAR     53  47  79 NW8       30.08S
BARKSDALE AFB  CLEAR     49  47  93 NW5       30.08S
DTN SHREVEPORT CLEAR     56  46  69 NW7       30.08S

$$

LAZ014-016-311000-
NORTHEAST LOUISIANA

CITY           SKY/WX    TMP DP  RH WIND       PRES   REMARKS
MONROE         CLEAR     53  46  77 NW5       30.05F
TALLULAH       CLEAR     43  42  97 CALM      30.03F

$$




USA.gov is the U.S. government's official web portal to all federal, state and local government web resources and services.